TimeCDT,TemperatureF,Dew PointF,Humidity,Sea Level PressureIn,VisibilityMPH,Wind Direction,Wind SpeedMPH,Gust SpeedMPH,PrecipitationIn,Events,Conditions,WindDirDegrees,DateUTC
12:53 AM,53.6,37.4,54,30.12,9.0,West,3.5,-,N/A,,Clear,270,2013-10-06 05:53:00
12:58 AM,53.2,37.9,56,30.10,7.0,West,4.6,-,N/A,,Clear,280,2013-10-06 05:58:00
1:03 AM,51.8,39.2,62,30.11,5.0,West,5.8,-,N/A,,Haze,280,2013-10-06 06:03:00
1:08 AM,51.8,39.2,62,30.11,4.0,West,5.8,-,N/A,,Haze,280,2013-10-06 06:08:00
1:13 AM,51.8,39.2,62,30.11,3.0,WNW,6.9,-,N/A,,Haze,290,2013-10-06 06:13:00
1:18 AM,51.8,37.4,58,30.11,2.5,WNW,6.9,-,N/A,,Haze,290,2013-10-06 06:18:00
1:23 AM,51.8,37.4,58,30.11,2.5,WNW,6.9,-,N/A,,Haze,290,2013-10-06 06:23:00
1:33 AM,51.8,39.2,62,30.12,3.0,WNW,4.6,-,N/A,,Haze,290,2013-10-06 06:33:00
1:53 AM,51.8,35.6,54,30.12,3.0,WNW,6.9,-,N/A,,Haze,290,2013-10-06 06:53:00
1:58 AM,52.0,36.1,55,30.11,3.0,WNW,6.9,-,N/A,,Haze,290,2013-10-06 06:58:00
2:03 AM,51.8,35.6,54,30.12,3.0,WNW,6.9,-,N/A,,Haze,290,2013-10-06 07:03:00
2:13 AM,51.8,35.6,54,30.12,3.0,West,5.8,-,N/A,,Haze,280,2013-10-06 07:13:00
2:18 AM,51.8,35.6,54,30.12,3.0,WNW,5.8,-,N/A,,Haze,300,2013-10-06 07:18:00
2:23 AM,51.8,35.6,54,30.12,3.0,WNW,4.6,-,N/A,,Haze,300,2013-10-06 07:23:00
2:28 AM,50.0,35.6,58,30.12,4.0,WNW,4.6,-,N/A,,Haze,300,2013-10-06 07:28:00
2:33 AM,50.0,37.4,62,30.12,6.0,NW,5.8,-,N/A,,Haze,320,2013-10-06 07:33:00
2:58 AM,49.8,39.4,67,30.11,10.0,NW,9.2,-,N/A,,Clear,320,2013-10-06 07:58:00
3:58 AM,50.5,37.8,62,30.11,10.0,NW,10.4,-,N/A,,Clear,320,2013-10-06 08:58:00
4:58 AM,49.8,35.8,59,30.12,10.0,NW,9.2,-,N/A,,Clear,310,2013-10-06 09:58:00
5:58 AM,48.2,34.3,59,30.13,10.0,NW,9.2,-,N/A,,Clear,320,2013-10-06 10:58:00
6:58 AM,48.0,31.8,54,30.14,10.0,NW,9.2,-,N/A,,Clear,320,2013-10-06 11:58:00
7:58 AM,48.7,30.6,50,30.14,10.0,NW,9.2,-,N/A,,Clear,320,2013-10-06 12:58:00
8:58 AM,53.4,31.5,43,30.16,10.0,North,12.7,-,N/A,,Clear,350,2013-10-06 13:58:00
9:58 AM,58.1,29.3,33,30.17,10.0,NW,10.4,-,N/A,,Clear,310,2013-10-06 14:58:00
10:58 AM,63.5,30.9,29,30.18,10.0,NNW,18.4,-,N/A,,Clear,340,2013-10-06 15:58:00
11:58 AM,68.0,30.9,25,30.17,10.0,NNW,23.0,26.5,N/A,,Clear,340,2013-10-06 16:58:00
12:58 PM,69.3,30.7,24,30.16,10.0,NNW,17.3,-,N/A,,Clear,330,2013-10-06 17:58:00
1:58 PM,71.1,32.5,24,30.12,10.0,North,15.0,-,N/A,,Clear,350,2013-10-06 18:58:00
2:58 PM,73.9,34.3,24,30.10,10.0,North,8.1,-,N/A,,Clear,350,2013-10-06 19:58:00
3:58 PM,75.4,36.3,24,30.07,10.0,Variable,6.9,-,N/A,,Clear,0,2013-10-06 20:58:00
4:31 PM,77.0,33.8,21,30.08,10.0,NNW,17.3,-,N/A,,Clear,330,2013-10-06 21:31:00
4:58 PM,79.0,31.6,18,30.05,10.0,NW,16.1,-,N/A,,Clear,320,2013-10-06 21:58:00
5:58 PM,77.5,34.0,21,30.05,10.0,NNW,12.7,-,N/A,,Clear,330,2013-10-06 22:58:00
6:58 PM,72.3,39.0,30,30.06,10.0,North,5.8,-,N/A,,Clear,350,2013-10-06 23:58:00
7:48 PM,66.2,42.8,43,30.08,9.0,NE,3.5,-,N/A,,Clear,50,2013-10-07 00:48:00
7:58 PM,64.4,43.9,47,30.07,10.0,ENE,3.5,-,N/A,,Clear,60,2013-10-07 00:58:00
8:43 PM,64.4,41.0,42,30.09,8.0,Calm,Calm,-,N/A,,Clear,0,2013-10-07 01:43:00
8:48 PM,64.4,41.0,42,30.09,6.0,Calm,Calm,-,N/A,,Haze,0,2013-10-07 01:48:00
8:58 PM,61.7,44.8,54,30.08,6.0,South,3.5,-,N/A,,Haze,170,2013-10-07 01:58:00
9:08 PM,60.8,44.6,55,30.09,5.0,South,3.5,-,N/A,,Haze,180,2013-10-07 02:08:00
9:13 PM,60.8,44.6,55,30.09,5.0,South,3.5,-,N/A,,Haze,180,2013-10-07 02:13:00
9:18 PM,60.8,46.4,59,30.10,5.0,South,2.3,-,N/A,,Haze,180,2013-10-07 02:18:00
9:28 PM,59.0,44.6,59,30.10,7.0,South,4.6,-,N/A,,Clear,180,2013-10-07 02:28:00
9:43 PM,60.8,42.8,52,30.10,6.0,South,3.5,-,N/A,,Haze,180,2013-10-07 02:43:00
9:58 PM,60.6,41.4,49,30.09,6.0,South,3.5,-,N/A,,Haze,180,2013-10-07 02:58:00
10:23 PM,59.0,44.6,59,30.11,7.0,South,1.2,-,N/A,,Clear,180,2013-10-07 03:23:00
10:28 PM,57.2,42.8,59,30.11,8.0,Calm,Calm,-,N/A,,Clear,0,2013-10-07 03:28:00
10:43 PM,55.4,46.4,72,30.11,9.0,Calm,Calm,-,N/A,,Clear,0,2013-10-07 03:43:00
10:53 PM,55.4,44.6,67,30.12,8.0,Calm,Calm,-,N/A,,Clear,0,2013-10-07 03:53:00
10:58 PM,55.0,43.9,66,30.11,8.0,Calm,Calm,-,N/A,,Clear,0,2013-10-07 03:58:00
11:03 PM,57.2,44.6,63,30.12,9.0,Calm,Calm,-,N/A,,Clear,0,2013-10-07 04:03:00
11:58 PM,52.2,44.4,75,30.11,8.0,North,2.3,-,N/A,,Clear,10,2013-10-07 04:58:00